Regional Weather Roundup
Issued by NWS

Home | Current Version | Previous Version | Graphics & Text | Print | Product List | Glossary On
Versions: 1 2 3 4 5 6 7 8 9 10 11 12 13 14 15 16 17 18 19 20 21 22 23 24 25 26 27 28 29 30 31 32 33 34 35 36 37 38 39 40 41 42 43 44 45 46 47 48 49 50
340
ASUS43 KMPX 221810
RWRMN
WEATHER ROUNDUP FOR MINNESOTA
NATIONAL WEATHER SERVICE TWIN CITIES/CHANHASSEN MN
1200 PM CST MON JAN 22 2018


NOTE: "FAIR" INDICATES FEW OR NO CLOUDS BELOW 12,000 FEET WITH NO
SIGNIFICANT WEATHER AND/OR OBSTRUCTIONS TO VISIBILITY. N/A MEANS
CURRENT SKY AND/OR WEATHER CONDITIONS ARE NOT AVAILABLE.

MNZ060>063-068>070-221900-
   Twin Cities Metro

CITY           SKY/WX    TMP DP  RH WIND       PRES   REMARKS
TWIN CITIES    SNOW      30  29  96 N22G28    29.70F VSB 1/2 WCI  17
6HR MIN TEMP:  30; 6HR MAX TEMP:  33; 6HR PCP:  0.05;

ST PAUL        HVY SNOW  30  29  96 N14G24    29.72F VSB 1/4 WCI  19
CRYSTAL        SNOW      30  25  81 N13       29.73F VSB 1/2 WCI  20
BLAINE         LGT SNOW  30  30 100 N15       29.74F VSB 3/4 WCI  19
LAKEVILLE        N/A     28  28 100 N23G29    29.64F WCI  14
EDEN PRAIRIE   HVY SNOW  30  27  88 N20G29    29.67F VSB 1/4 WCI  17
6HR MIN TEMP:  30; 6HR MAX TEMP:  33; 6HR PCP: TRACE;

SOUTH ST PAUL  LGT SNOW  31  30  97 N14G24    29.68F VSB 3/4 WCI  21
LAKE ELMO      SNOW      32  30  93 N17G24    29.70F VSB 1/4 WCI  21
$$
MNZ001>005-007-008-013>017-022>024-027-028-221900-
   Northwest Minnesota

CITY           SKY/WX    TMP DP  RH WIND       PRES   REMARKS
BEMIDJI        CLOUDY    24  23  93 NE14      29.97F WCI  12
HALLOCK        CLOUDY    27  21  80 NE9       30.08F WCI  17
ROSEAU         CLOUDY    23  19  86 NE9       30.06F WCI  13
WARROAD        CLOUDY    21  18  86 N9        30.07F WCI  11
THIEF RVR FALL CLOUDY    25  22  88 NE13      30.03F WCI  14
CROOKSTON      FAIR      27  23  86 N9        30.04F WCI  17
FOSSTON        CLOUDY    25  21  86 NE12G18   29.98F WCI  14
DETROIT LAKES  CLOUDY    28  27  93 NE13      29.93F WCI  18
MOORHEAD       CLOUDY    27  23  86 N16       29.98F WCI  14
PARK RAPIDS    CLOUDY    26  22  84 NE10G22   29.91F WCI  16
MAHNOMEN       CLOUDY    26  23  87 NE18      29.95F WCI  13
$$
MNZ006-009>011-018-025>026-221900-
   North Central Minnesota

CITY           SKY/WX    TMP DP  RH WIND       PRES   REMARKS
BAUDETTE       CLOUDY    22  19  89 NE9       30.04F WCI  12
FLAG ISLAND    CLOUDY    19  16  86 N12       30.08F WCI   7
INTL FALLS     CLOUDY    20  16  84 NE6       30.03F WCI  12
6HR MIN TEMP:  19; 6HR MAX TEMP:  20;

WASKISH        CLOUDY    23  21  93 NE8       30.01F WCI  14
BIG FORK       CLOUDY    21  19  93 N7        29.98F WCI  13
LONGVILLE      CLOUDY    28  21  74 NE5       29.92F WCI  23
GRAND RAPIDS   CLOUDY    25  21  85 N10       29.94F WCI  15
CRANE LAKE     CLOUDY    18  12  79 N6        30.04F WCI   9
ORR            CLOUDY    19  16  86 N3        29.97F
COOK           CLOUDY    19  18  93 CALM      29.98F
WALKER         CLOUDY    26  22  84 NE10      29.94F WCI  16
$$
MNZ012-019>021-037-221900-
   Northeast Minnesota

CITY           SKY/WX    TMP DP  RH WIND       PRES   REMARKS
DULUTH         CLOUDY    22  21  96 NE18      29.89F WCI   7
6HR MIN TEMP:  22; 6HR MAX TEMP:  24; 6HR PCP: TRACE;

ELY            CLOUDY    16  16 100 N6        29.97F WCI   7
HIBBING        CLOUDY    23  19  85 NE13      29.94S WCI  11
EVELETH        CLOUDY    26  20  79 NE9G16    29.95F WCI  17
DULUTH HARBOR  CLOUDY    27  25  93 NE26G33   29.94F WCI  11
TWO HARBORS    CLOUDY    27  21  80 NE7       29.91F WCI  19
SILVER BAY     CLOUDY    23  21  93 NE8       29.93F WCI  14
GRAND MARAIS     N/A     26  17  68 NE9       30.00F WCI  17
G MARAIS ARPRT CLOUDY    18  10  73 N10       29.94F WCI   6
$$
MNZ029>031-032-039>041-046>048-054>057-064-221900-
   West Central Minnesota

CITY           SKY/WX    TMP DP  RH WIND       PRES   REMARKS
FERGUS FALLS   CLOUDY    27  25  93 NE14G23   29.91F WCI  15
WHEATON        CLOUDY    27  23  86 N14       29.93F WCI  15
MORRIS         CLOUDY    28  25  86 N21G29    29.85F WCI  15
ALEXANDRIA     CLOUDY    27  23  85 N20G28    29.84F WCI  13
ELBOW LAKE     CLOUDY    27  24  91 NE13      29.89F WCI  16
WADENA         CLOUDY    27  23  86 NE17      29.89F WCI  14
GLENWOOD       CLOUDY    27  25  93 N22G30    29.82F WCI  12
APPLETON       CLOUDY    30  25  80 N23G31    29.83F WCI  17
BENSON           N/A     30  25  80 NE18G28   29.83F WCI  18
ORTONVILLE     CLOUDY    27  25  93 N29G35    29.85F WCI  11
MADISON        CLOUDY    30  28  93 N24G31    29.83F WCI  16
WILLMAR        CLOUDY    28  25  86 NE28G37   29.79F WCI  13
$$
MNZ033>034-036-042>043-049>051-058-059-221900-
   Central Minnesota

CITY           SKY/WX    TMP DP  RH WIND       PRES   REMARKS
ST CLOUD       CLOUDY    29  25  85 NE15G23   29.80F WCI  18
6HR MIN TEMP:  29; 6HR MAX TEMP:  29;

SAUK CENTRE      N/A     27  23  85 N18       29.83F WCI  13
PAYNESVILLE    CLOUDY    28  26  89 NE21G30   29.79F WCI  15
AITKIN         CLOUDY    25  21  86 NE10G21   29.88F WCI  15
PINE RIVER     CLOUDY    27  21  80 NE12      29.94F WCI  16
BRAINERD       CLOUDY    29  23  78 NE17G23   29.88F WCI  17
STAPLES        CLOUDY    27  21  80 NE10G17   29.88F WCI  17
LONG PRAIRIE   CLOUDY    27  23  86 N20G28    29.85F WCI  13
LITTLE FALLS   CLOUDY    28  19  69 N8        29.86  WCI  20
LITCHFIELD       N/A     30  27  86 N16G30    29.77F WCI  19
BUFFALO        LGT SNOW  30  26  85 N12G23    29.77F WCI  20
MAPLE LAKE     CLOUDY    31  27  86 MISG      29.78F
HUTCHINSON     LGT SNOW  30  28  90 N21G28    29.73F WCI  17
$$
MNZ037-044-045-052-053-221900-
   East Central Minnesota

CITY           SKY/WX    TMP DP  RH WIND       PRES   REMARKS
PRINCETON      CLOUDY    30  25  80 N13G26    29.81S WCI  20
MORA           CLOUDY    28  23  80 NE9G21    29.84F WCI  20
CAMBRIDGE      CLOUDY    30  23  74 N13G25    29.80F WCI  20
RUSH CITY      CLOUDY    30  25  82 NE16G25   29.81F WCI  18
MOOSE LAKE     CLOUDY    27  23  86 NE13G21   29.87F FOG     WCI  16
HINCKLEY       CLOUDY    30  27  86 NE18G25   29.84F WCI  18
CLOQUET        CLOUDY    23  21  93 NE14G21   29.89F WCI  11
MCGREGOR       CLOUDY    27  23  86 NE10G17   29.90F WCI  17
$$
MNZ071>073-080-081-089-090-097-098-221900-
   Southwest Minnesota

CITY           SKY/WX    TMP DP  RH WIND       PRES   REMARKS
MONTEVIDEO     CLOUDY    28  25  86 NE25G32   29.79F WCI  14
GRANITE FALLS  CLOUDY    31  26  82 N23G30    29.79F WCI  18
CANBY          CLOUDY    29  27  94 N20G25    29.81F WCI  16
MARSHALL       CLOUDY    28  25  88 N21       29.76F WCI  15
REDWOOD FALLS  LGT SNOW  29  26  89 N15G25    29.73F VSB 3/4 WCI  18
OLIVIA         CLOUDY    30  27  86 N24G31    29.74F WCI  16
PIPESTONE      CLOUDY    25  23  93 NE23G33   29.72R WCI  10
WINDOM         CLOUDY    28  16  59 N29G36    29.65R WCI  13
WORTHINGTON    HVY SNOW  27  26  96 N26G32    29.65R VSB 1/4 WCI  12
JACKSON        CLOUDY    28  27  93 VRB31G38  29.62S VSB 1/2 WCI  12
TRACY          CLOUDY    29  28  96 N23G31    29.73R WCI  15
SLAYTON        CLOUDY    27  26  95 N28G35    29.69R WCI  11
$$
MNZ065>067-074>077-082>085-091>093-221900-
   South Central Minnesota

CITY           SKY/WX    TMP DP  RH WIND       PRES   REMARKS
MANKATO        LGT SNOW  30  28  93 N28G38    29.61S VSB 3/4 WCI  16
NEW ULM        CLOUDY    28  27  93 N18G26    29.66F WCI  16
ST JAMES       CLOUDY    28  28 100 N22G28    29.67R WCI  15
FAIRMONT       HVY SNOW  30  29  96 N23G31    29.61R VSB 1/4 WCI  17
FARIBAULT      SNOW      30  28  93 N23G31    29.59F VSB 1/4 WCI  17
OWATONNA       CLOUDY    30  28  93 N20G30    29.56S WCI  18
WASECA         SNOW      32  30  93 N24G38    29.60R WCI  19
ALBERT LEA     LGT SNOW  34  32  93 NE17G26   29.55R VSB 3/4 WCI  23
$$
MNZ078>079-086>088-094>096-221900-
   Southeast Minnesota

CITY           SKY/WX    TMP DP  RH WIND       PRES   REMARKS
ROCHESTER      SNOW      32  32 100 NE21G31   29.53F VSB 1/4 WCI  20
6HR MIN TEMP:  32; 6HR MAX TEMP:  34; 6HR PCP:  0.46;

RED WING       SNOW      34  28  80 NE15G28   29.60F VSB 1/4 WCI  24
STANTON        HVY SNOW  32  30  92 N29G35    29.60F VSB 1/4 WCI  17
DODGE CENTER   LGT SNOW  32  30  93 NE17G29   29.54F VSB 3/4 WCI  21
WINONA         LGT RAIN  34  32  93 NE6       29.55F WCI  29
AUSTIN         SNOW      32  30  93 NE13      29.54R VSB 1/4 WCI  22
PRESTON        LGT SNOW  32  31  96 NE8       29.53R WCI  25
$$
ABBREVIATIONS USED IN REMARKS
   TC - TEMPERATURES IN CELSIUS
  WCI - WIND CHILL INDEX
   HX - HEAT INDEX
  VSB - VISIBILITY
$$




USA.gov is the U.S. government's official web portal to all federal, state and local government web resources and services.